TimePST,TemperatureF,Dew PointF,Humidity,Sea Level PressureIn,VisibilityMPH,Wind Direction,Wind SpeedMPH,Gust SpeedMPH,PrecipitationIn,Events,Conditions,WindDirDegrees,DateUTC
12:15 AM,39.2,24.8,56,29.98,10.0,WNW,25.3,35.7,N/A,,Scattered Clouds,290,2013-01-28 08:15:00
12:35 AM,39.2,24.8,56,29.98,10.0,West,27.6,38.0,N/A,,Overcast,280,2013-01-28 08:35:00
1:15 AM,39.2,23.0,52,29.99,10.0,WNW,23.0,33.4,N/A,,Mostly Cloudy,300,2013-01-28 09:15:00
1:35 AM,39.2,23.0,52,29.99,10.0,NW,15.0,32.2,N/A,,Mostly Cloudy,320,2013-01-28 09:35:00
1:55 AM,37.4,23.0,56,29.99,10.0,West,25.3,32.2,N/A,,Partly Cloudy,280,2013-01-28 09:55:00
2:15 AM,37.4,23.0,56,30.00,10.0,NW,12.7,27.6,N/A,,Clear,310,2013-01-28 10:15:00
2:35 AM,37.4,24.8,60,30.00,10.0,NW,18.4,35.7,N/A,,Clear,310,2013-01-28 10:35:00
2:55 AM,37.4,24.8,60,30.01,10.0,WNW,23.0,29.9,N/A,,Clear,290,2013-01-28 10:55:00
3:15 AM,37.4,24.8,60,30.02,10.0,West,12.7,40.3,N/A,,Clear,280,2013-01-28 11:15:00
4:15 AM,37.4,23.0,56,30.01,10.0,WNW,5.8,20.7,N/A,,Partly Cloudy,290,2013-01-28 12:15:00
4:35 AM,39.2,23.0,52,30.01,10.0,WNW,6.9,17.3,N/A,,Clear,300,2013-01-28 12:35:00
4:55 AM,37.4,24.8,60,30.01,10.0,SSW,4.6,-,N/A,,Clear,210,2013-01-28 12:55:00
5:15 AM,37.4,23.0,56,30.01,10.0,WNW,8.1,-,N/A,,Clear,290,2013-01-28 13:15:00
5:35 AM,37.4,23.0,56,30.01,10.0,WNW,10.4,-,N/A,,Clear,300,2013-01-28 13:35:00
5:55 AM,39.2,23.0,52,30.01,10.0,WNW,10.4,18.4,N/A,,Clear,290,2013-01-28 13:55:00
6:15 AM,37.4,23.0,56,30.02,10.0,NW,18.4,24.2,N/A,,Clear,310,2013-01-28 14:15:00
6:35 AM,37.4,24.8,60,30.02,10.0,WNW,17.3,25.3,N/A,,Clear,300,2013-01-28 14:35:00
6:55 AM,37.4,23.0,56,30.02,10.0,NW,17.3,24.2,N/A,,Clear,310,2013-01-28 14:55:00
7:15 AM,37.4,23.0,56,30.03,10.0,NW,18.4,26.5,N/A,,Clear,310,2013-01-28 15:15:00
7:35 AM,39.2,24.8,56,30.03,10.0,WNW,18.4,-,N/A,,Clear,300,2013-01-28 15:35:00
7:55 AM,39.2,23.0,52,30.03,10.0,NW,18.4,-,N/A,,Clear,320,2013-01-28 15:55:00
8:15 AM,39.2,23.0,52,30.05,10.0,NW,10.4,20.7,N/A,,Clear,320,2013-01-28 16:15:00
8:35 AM,41.0,23.0,49,30.05,10.0,WNW,8.1,-,N/A,,Clear,290,2013-01-28 16:35:00
8:55 AM,41.0,24.8,53,30.07,10.0,West,10.4,17.3,N/A,,Clear,270,2013-01-28 16:55:00
9:15 AM,41.0,24.8,53,30.07,10.0,WNW,18.4,21.9,N/A,,Clear,290,2013-01-28 17:15:00
9:35 AM,41.0,24.8,53,30.07,10.0,WNW,23.0,31.1,N/A,,Clear,290,2013-01-28 17:35:00
9:55 AM,41.0,24.8,53,30.08,10.0,WNW,20.7,25.3,N/A,,Clear,300,2013-01-28 17:55:00
10:15 AM,41.0,24.8,53,30.09,10.0,NW,21.9,28.8,N/A,,Clear,310,2013-01-28 18:15:00
10:35 AM,41.0,24.8,53,30.08,10.0,WNW,23.0,29.9,N/A,,Clear,290,2013-01-28 18:35:00
10:55 AM,42.8,24.8,49,30.08,10.0,WNW,24.2,32.2,N/A,,Clear,290,2013-01-28 18:55:00
11:15 AM,42.8,24.8,49,30.07,10.0,WNW,27.6,33.4,N/A,,Clear,300,2013-01-28 19:15:00
11:35 AM,42.8,24.8,49,30.07,10.0,West,25.3,34.5,N/A,,Clear,280,2013-01-28 19:35:00
11:55 AM,42.8,24.8,49,30.07,10.0,WNW,27.6,38.0,N/A,,Clear,300,2013-01-28 19:55:00
12:15 PM,44.6,23.0,43,30.06,10.0,WNW,27.6,36.8,N/A,,Clear,300,2013-01-28 20:15:00
12:35 PM,44.6,23.0,43,30.06,10.0,West,26.5,32.2,N/A,,Clear,280,2013-01-28 20:35:00
12:55 PM,42.8,24.8,49,30.07,10.0,West,23.0,36.8,N/A,,Clear,280,2013-01-28 20:55:00
1:15 PM,42.8,24.8,49,30.06,10.0,West,28.8,35.7,N/A,,Clear,280,2013-01-28 21:15:00
1:35 PM,44.6,24.8,46,30.06,10.0,West,20.7,33.4,N/A,,Clear,280,2013-01-28 21:35:00
1:55 PM,44.6,24.8,46,30.06,10.0,West,29.9,34.5,N/A,,Clear,280,2013-01-28 21:55:00
2:15 PM,44.6,23.0,43,30.05,10.0,West,27.6,35.7,N/A,,Clear,280,2013-01-28 22:15:00
2:35 PM,44.6,23.0,43,30.05,10.0,WNW,31.1,36.8,N/A,,Clear,290,2013-01-28 22:35:00
2:55 PM,42.8,23.0,46,30.06,10.0,WNW,24.2,35.7,N/A,,Clear,300,2013-01-28 22:55:00
3:15 PM,42.8,24.8,49,30.07,10.0,West,25.3,35.7,N/A,,Clear,280,2013-01-28 23:15:00
3:35 PM,41.0,24.8,53,30.07,10.0,WNW,26.5,33.4,N/A,,Clear,290,2013-01-28 23:35:00
3:55 PM,41.0,23.0,49,30.08,10.0,WNW,24.2,36.8,N/A,,Clear,290,2013-01-28 23:55:00
4:15 PM,41.0,23.0,49,30.08,10.0,West,21.9,33.4,N/A,,Clear,280,2013-01-29 00:15:00
4:35 PM,41.0,23.0,49,30.09,10.0,WNW,19.6,32.2,N/A,,Clear,290,2013-01-29 00:35:00
4:55 PM,41.0,23.0,49,30.09,10.0,West,17.3,-,N/A,,Clear,270,2013-01-29 00:55:00
5:15 PM,39.2,23.0,52,30.08,10.0,WNW,24.2,29.9,N/A,,Clear,290,2013-01-29 01:15:00
5:35 PM,39.2,24.8,56,30.09,10.0,NW,18.4,35.7,N/A,,Clear,310,2013-01-29 01:35:00
5:55 PM,39.2,24.8,56,30.09,10.0,West,24.2,35.7,N/A,,Clear,280,2013-01-29 01:55:00
6:15 PM,39.2,24.8,56,30.10,10.0,WNW,21.9,34.5,N/A,,Clear,290,2013-01-29 02:15:00
6:35 PM,39.2,24.8,56,30.10,10.0,WNW,26.5,33.4,N/A,,Clear,290,2013-01-29 02:35:00
6:55 PM,39.2,24.8,56,30.11,10.0,WNW,21.9,40.3,N/A,,Clear,290,2013-01-29 02:55:00
7:15 PM,39.2,24.8,56,30.11,10.0,WNW,19.6,31.1,N/A,,Clear,290,2013-01-29 03:15:00
7:35 PM,39.2,24.8,56,30.12,10.0,WNW,20.7,33.4,N/A,,Clear,290,2013-01-29 03:35:00
7:55 PM,39.2,23.0,52,30.12,10.0,West,18.4,25.3,N/A,,Clear,280,2013-01-29 03:55:00
8:15 PM,39.2,24.8,56,30.12,10.0,West,19.6,24.2,N/A,,Clear,280,2013-01-29 04:15:00
8:35 PM,37.4,24.8,60,30.12,10.0,West,16.1,24.2,N/A,,Clear,280,2013-01-29 04:35:00
8:55 PM,39.2,24.8,56,30.12,10.0,West,19.6,23.0,N/A,,Clear,280,2013-01-29 04:55:00
9:15 PM,39.2,24.8,56,30.13,10.0,WNW,17.3,28.8,N/A,,Clear,290,2013-01-29 05:15:00
9:35 PM,39.2,24.8,56,30.13,10.0,NW,15.0,24.2,N/A,,Clear,310,2013-01-29 05:35:00
9:55 PM,39.2,23.0,52,30.12,10.0,WNW,11.5,18.4,N/A,,Clear,290,2013-01-29 05:55:00
10:15 PM,37.4,24.8,60,30.12,10.0,West,19.6,-,N/A,,Clear,270,2013-01-29 06:15:00
10:35 PM,39.2,24.8,56,30.14,10.0,West,17.3,20.7,N/A,,Clear,270,2013-01-29 06:35:00
10:55 PM,39.2,23.0,52,30.13,10.0,West,17.3,20.7,N/A,,Clear,270,2013-01-29 06:55:00
11:15 PM,37.4,24.8,60,30.14,10.0,West,17.3,-,N/A,,Clear,260,2013-01-29 07:15:00
11:35 PM,37.4,24.8,60,30.16,10.0,WSW,15.0,25.3,N/A,,Clear,240,2013-01-29 07:35:00
11:55 PM,37.4,24.8,60,30.15,10.0,West,19.6,-,N/A,,Clear,260,2013-01-29 07:55:00